RH
16 21 23 25 24 27 32 33 33 33 33 35 33 34 35 39 51 54 55 59 62 67 73 72 73 76 75 75 76 71 66 66 68 65 60 61 63 62 62 63 65 67 66 61 55 50 46 46 45 45 46 44 43 44 44 45 45 44 48 47 42 43 43 42 42 42 45 44 44 45 45 46 47 45 45 45 44 41 40 38 33 32 36 38 37 37
16 21 24 24 24 26 27 28 29 29 34 38 34 33 32 37 51 54 53 56 58 65 71 72 75 77 75 74 76 74 70 67 67 68 64 62 63 63 62 62 63 66 66 63 58 53 50 49 47 45 46 44 44 44 42 43 43 42 45 46 44 42 41 42 43 42 45 46 45 45 45 49 49 46 47 47 47 48 46 40 33 34 39 39 39 40
15 20 24 24 24 28 28 26 27 26 34 41 36 33 32 38 51 52 48 47 50 59 67 69 71 72 72 71 72 74 75 72 69 69 67 65 64 65 64 60 61 64 66 65 60 54 51 51 49 46 46 46 44 43 43 43 41 41 41 41 43 42 40 41 41 41 46 47 46 45 47 51 51 47 49 50 49 50 50 44 37 37 38 39 42 43
15 18 22 23 23 26 25 25 27 25 34 43 38 35 35 37 47 52 50 46 43 49 60 65 65 64 67 66 65 65 68 72 74 73 71 69 66 67 67 62 60 62 66 66 62 56 52 51 51 47 45 46 46 43 42 42 40 39 38 35 38 40 40 40 38 39 44 45 43 42 44 49 51 49 49 50 48 49 50 48 44 40 38 40 45 47
12 15 17 19 22 23 21 23 26 25 33 41 37 35 36 35 39 48 53 48 43 46 50 57 62 61 61 64 64 60 59 63 71 75 75 74 70 69 70 66 63 62 65 68 66 62 55 52 51 49 45 46 47 45 42 41 40 39 36 32 34 37 39 39 36 37 41 41 37 36 39 43 45 46 46 47 48 48 49 49 48 45 42 41 47 50
9 12 16 19 21 22 21 23 24 26 32 36 36 36 35 35 38 43 47 46 47 52 50 50 57 56 51 57 61 58 56 57 61 67 72 75 74 73 72 69 65 62 63 68 70 68 63 57 54 50 47 45 46 46 42 40 39 39 37 31 31 34 36 37 36 37 39 39 35 33 36 40 43 44 46 47 49 50 49 49 49 50 48 45 48 50
10 13 16 18 21 22 22 23 24 25 30 32 36 38 34 33 35 38 42 43 47 54 53 47 50 52 47 50 53 52 54 54 55 58 63 70 74 74 74 72 69 63 61 65 71 72 68 64 58 53 51 48 46 46 44 41 38 38 37 31 29 31 33 35 36 37 39 38 35 33 36 40 43 45 47 48 50 51 50 50 51 52 52 48 49 52
11 13 15 16 19 22 23 27 26 23 27 31 33 33 33 33 35 38 41 42 43 48 52 47 46 49 48 46 45 45 49 51 51 56 61 66 70 73 75 74 71 67 62 62 68 72 71 68 62 55 54 51 48 45 44 43 40 38 36 31 28 29 30 32 34 36 38 37 35 34 38 41 44 47 49 48 49 51 51 52 53 52 53 49 46 50
10 12 15 16 20 23 23 26 25 20 24 29 27 27 31 34 37 39 40 41 40 41 48 49 43 42 44 44 41 41 47 49 50 55 61 65 68 70 72 73 73 70 66 63 65 70 71 69 65 59 56 53 49 46 44 44 42 41 39 32 27 28 29 30 31 34 36 36 35 35 40 43 45 49 49 48 49 50 50 51 53 52 53 51 45 45
12 13 16 18 21 23 21 20 20 18 24 27 23 24 28 31 35 38 38 40 39 38 45 50 45 38 37 41 43 44 47 49 50 52 55 61 65 67 68 70 72 72 71 67 64 67 68 68 67 65 62 56 50 47 45 45 43 42 42 37 30 27 28 29 30 32 34 36 35 37 40 44 48 51 50 50 50 48 46 47 50 49 49 51 49 47
15 16 19 19 19 19 19 19 20 19 22 24 22 25 29 29 31 34 36 37 38 42 47 48 45 39 34 36 40 44 44 42 47 49 50 55 60 63 65 67 70 71 72 71 67 65 65 66 67 67 66 61 54 49 46 45 44 44 44 41 35 30 28 29 29 31 33 35 36 38 42 44 49 53 52 51 50 47 45 44 48 49 47 48 50 51
17 19 20 19 18 19 20 21 20 18 18 21 25 29 32 33 34 37 40 38 37 45 51 46 41 38 35 34 35 41 41 35 40 44 45 50 55 59 61 63 67 68 70 72 71 67 65 65 65 67 68 64 59 55 49 46 44 44 45 44 39 34 32 29 29 30 31 34 37 39 43 45 49 53 53 52 51 49 47 46 47 48 46 45 46 49
19 20 20 18 18 19 20 21 21 18 17 22 27 26 28 36 39 41 46 43 37 44 50 44 40 35 32 32 32 37 38 33 35 40 42 47 51 55 58 60 63 66 67 70 72 71 68 66 66 68 69 67 64 63 57 50 46 45 46 46 43 39 37 33 30 29 29 32 36 40 44 47 48 51 53 53 52 50 49 49 48 46 45 43 43 45
20 20 19 19 18 18 21 24 25 24 20 22 27 25 27 36 37 35 39 37 33 42 48 42 35 30 27 30 31 33 34 31 33 40 43 45 47 52 56 57 60 63 65 67 69 71 70 70 69 68 67 67 70 71 65 56 51 47 46 47 45 42 41 38 34 32 30 30 33 37 43 48 49 50 52 52 52 51 49 49 47 47 46 45 44 44
23 23 20 19 19 18 21 24 26 26 23 23 26 25 26 31 31 29 30 31 31 39 47 43 33 26 31 39 36 31 31 30 33 39 41 42 46 49 53 55 57 60 63 65 66 67 69 71 72 71 69 68 70 71 67 61 57 52 49 47 45 44 43 42 40 37 33 31 30 33 40 46 49 51 53 52 51 52 51 48 47 47 47 46 46 46
23 25 21 19 20 20 21 22 22 23 24 26 24 22 24 26 26 25 26 29 28 28 39 43 35 29 33 38 34 29 29 30 33 36 36 38 41 44 48 52 54 57 61 64 65 66 66 68 71 74 73 70 68 67 66 65 63 58 53 48 44 43 44 43 42 40 37 34 32 32 35 43 48 49 51 52 50 50 50 48 48 48 48 48 48 47
22 24 22 21 22 21 21 22 22 22 26 26 22 21 23 22 23 25 29 32 28 27 36 40 34 32 33 35 35 33 32 32 33 34 34 36 37 38 42 47 51 55 59 64 66 67 67 67 69 72 74 75 73 69 66 66 67 64 58 51 44 42 44 45 44 43 41 38 35 33 32 38 45 47 49 50 50 50 49 48 48 47 47 48 49 48
24 25 23 22 23 23 23 23 23 23 25 26 24 23 23 24 25 27 32 36 34 34 38 35 30 31 33 37 42 41 38 38 38 36 37 37 36 35 37 42 47 52 58 62 66 68 68 68 69 69 72 75 77 76 71 68 68 66 62 57 49 44 44 45 45 45 45 41 37 34 33 35 41 45 47 49 50 50 50 49 48 47 47 47 48 48
24 26 25 22 24 25 24 24 24 24 24 26 28 25 24 30 34 32 32 36 36 35 36 33 30 29 30 34 39 40 41 43 43 41 41 43 40 36 37 40 43 47 54 59 63 67 69 69 70 69 70 74 77 79 77 73 70 67 65 63 58 49 45 44 45 45 45 44 40 36 34 34 37 41 45 48 50 49 49 50 50 48 47 48 47 47
23 26 27 25 24 25 25 25 27 27 26 26 27 26 25 29 33 33 32 30 30 33 35 33 32 33 35 32 31 36 39 42 46 45 44 44 42 40 41 42 43 45 48 54 59 63 66 68 70 70 71 73 74 76 76 75 74 71 69 68 64 56 49 45 45 45 45 44 42 38 36 35 35 37 41 45 48 48 48 49 49 48 47 47 47 47
24 25 28 26 24 25 26 26 28 29 29 27 27 27 27 28 28 28 31 30 28 29 32 33 32 35 36 29 29 37 40 40 43 43 42 42 42 44 46 45 46 46 46 49 54 58 62 64 67 70 72 73 72 73 75 75 75 75 74 72 69 63 57 51 48 47 46 45 42 39 38 36 36 37 39 41 44 45 45 46 46 47 47 47 46 46
24 25 27 27 25 26 26 26 26 28 29 28 29 31 30 30 29 29 34 37 31 28 30 32 32 33 32 27 29 37 38 36 38 38 40 43 45 46 48 47 48 48 47 48 51 54 57 60 62 67 71 72 72 72 74 74 75 77 77 73 69 66 64 59 53 48 47 46 44 41 39 37 37 39 39 40 42 42 42 43 44 45 46 46 45 45
25 25 26 26 27 27 26 25 25 26 25 25 27 31 30 29 29 30 35 37 34 32 32 31 30 32 32 28 27 30 31 33 36 37 38 42 45 47 48 48 49 50 49 49 51 53 54 56 60 63 67 70 71 72 74 74 74 76 78 75 71 69 67 64 59 52 48 45 44 43 41 38 39 39 38 39 40 39 39 40 41 43 44 44 44 44
24 26 27 27 27 26 24 24 24 24 25 24 25 27 28 28 29 29 31 33 31 32 34 32 31 36 37 31 27 28 30 31 33 35 37 39 42 45 48 49 50 51 50 51 52 54 54 54 56 58 62 65 68 70 73 74 74 74 77 79 78 73 68 66 65 60 52 45 44 44 42 40 39 38 37 39 39 36 36 37 38 40 42 42 42 42
25 26 27 27 28 28 27 26 26 25 24 25 28 30 28 28 29 28 29 30 29 30 33 31 30 37 39 33 28 28 30 31 32 33 35 38 40 42 45 48 50 51 51 52 53 56 56 55 54 54 58 61 65 68 70 73 75 74 75 79 81 79 73 69 68 67 61 52 47 47 45 41 40 38 37 37 38 35 34 35 36 38 40 41 41 41
25 27 27 27 28 30 31 31 31 30 27 27 31 32 29 28 29 28 30 32 32 33 35 31 30 36 37 32 30 30 30 30 31 32 35 37 39 41 44 47 50 52 52 52 53 56 58 58 57 57 58 59 62 66 68 70 74 76 76 77 79 80 78 74 70 69 66 59 52 49 48 45 41 39 38 37 36 34 33 34 36 37 39 40 42 43
26 26 25 26 28 29 32 33 32 30 29 30 31 31 29 29 29 29 31 33 34 37 37 32 31 35 34 32 33 34 33 32 31 31 34 36 39 42 45 47 50 51 53 53 52 54 57 59 60 60 60 60 60 63 66 67 70 74 77 77 76 78 80 78 72 68 66 63 57 49 47 47 44 40 39 38 36 34 31 33 37 38 38 39 42 43
26 25 25 26 27 27 28 29 28 27 27 29 29 30 30 31 31 31 33 35 36 36 33 32 34 36 34 33 34 34 35 34 31 30 33 37 40 43 45 47 48 49 51 52 52 52 54 58 62 62 62 61 59 60 63 66 68 71 75 77 76 75 77 79 77 71 67 65 62 54 47 46 47 45 42 40 39 36 31 31 35 37 38 40 42 43
25 25 25 25 26 26 26 26 26 26 27 27 28 29 30 31 31 31 32 35 35 32 30 32 36 36 34 33 34 33 33 33 32 31 34 38 41 44 45 46 46 46 46 48 50 50 51 55 61 65 65 64 62 61 61 64 66 69 73 77 78 76 75 76 78 76 72 67 65 62 54 46 45 46 46 43 40 38 34 32 34 36 38 39 40 40
25 27 28 26 26 26 25 25 26 26 27 27 27 28 28 29 30 30 31 33 31 29 29 30 33 33 33 34 36 35 33 33 35 35 36 38 41 43 45 44 45 45 45 45 46 46 47 51 57 63 67 68 67 65 63 62 64 68 72 76 81 82 80 77 76 76 76 72 68 67 63 54 46 43 45 43 39 37 36 35 35 36 36 37 37 36
25 29 29 26 26 27 25 25 25 25 26 26 26 25 25 26 28 28 29 29 30 29 27 27 30 32 33 35 38 39 37 36 36 36 38 40 41 42 43 42 43 44 44 44 43 43 44 47 51 57 64 69 70 68 66 64 64 67 70 73 78 83 85 83 81 79 77 75 72 70 67 62 55 47 44 43 41 39 37 36 36 35 34 34 33 32
26 30 30 26 26 28 27 26 25 25 25 25 25 24 24 24 25 26 27 27 28 28 28 28 30 32 35 37 39 40 38 36 36 37 39 41 41 41 41 40 40 40 41 41 41 41 42 44 47 51 56 64 68 68 68 66 66 67 69 72 76 79 81 83 85 85 83 81 77 73 68 63 60 55 49 44 42 42 40 38 37 35 34 33 33 32
27 29 30 29 27 28 28 28 27 27 27 26 25 25 25 25 25 26 27 27 27 27 28 31 34 35 39 39 38 39 38 37 36 37 38 39 40 40 39 39 39 39 38 37 37 37 38 40 44 47 52 58 63 65 67 67 65 65 67 70 72 75 77 78 80 84 86 86 83 79 73 66 62 60 57 50 44 43 42 40 39 36 35 34 34 35
29 28 29 30 29 29 30 30 30 30 29 27 27 26 26 26 26 27 28 29 30 29 30 33 35 36 37 36 35 37 38 38 38 37 38 38 39 40 39 39 39 38 37 35 34 34 36 37 40 44 49 53 57 61 64 66 65 65 65 66 68 71 74 76 76 78 82 86 86 84 81 75 66 61 61 57 50 45 43 42 42 40 38 36 35 35
29 28 28 30 30 30 31 33 33 32 29 28 29 28 27 27 27 28 29 30 31 31 32 34 34 34 35 35 36 38 39 40 40 40 41 40 39 41 42 40 39 39 37 34 32 33 35 37 39 42 46 50 53 56 59 63 65 65 64 63 64 65 68 71 75 76 77 80 82 83 83 82 75 66 61 60 56 51 46 44 43 42 42 40 38 37
28 26 27 29 30 31 33 33 32 30 29 30 30 28 27 27 27 29 31 32 33 33 33 35 36 37 38 40 41 41 42 43 41 42 42 38 36 42 44 42 40 39 36 33 33 34 35 37 39 42 43 47 51 53 55 58 62 64 62 61 62 61 62 65 70 74 76 77 78 79 80 81 80 74 66 61 59 56 51 47 45 45 45 44 43 41
27 25 27 31 30 30 31 30 29 31 33 33 31 28 28 28 28 30 32 35 36 34 33 35 38 40 42 43 43 44 44 43 40 42 43 38 37 43 45 44 43 40 36 34 34 35 35 36 40 42 43 44 47 50 53 55 59 61 62 61 60 59 59 60 63 68 72 75 76 77 78 79 79 78 73 69 64 60 57 53 50 49 48 47 46 45
28 26 28 31 31 29 29 29 31 35 36 35 33 30 30 29 30 30 31 35 37 35 34 35 38 40 42 44 45 46 45 41 41 46 47 41 40 44 45 45 44 41 38 36 36 36 35 36 40 42 43 44 45 48 51 54 56 59 61 61 60 57 56 56 58 61 65 69 73 74 76 79 79 78 77 75 72 68 64 61 56 53 52 51 49 47
29 29 29 30 31 31 31 31 32 33 34 35 34 33 32 31 31 31 31 33 35 36 35 36 38 41 42 44 46 46 43 41 43 49 48 43 41 43 45 45 44 42 40 38 37 38 39 39 41 42 43 45 46 47 49 52 55 58 59 60 60 58 57 56 56 57 60 63 66 69 72 75 77 78 77 75 75 75 73 70 66 62 60 58 54 52
31 32 31 29 29 32 34 33 31 30 34 38 36 34 34 34 33 33 33 34 36 37 37 37 40 42 43 45 47 44 41 41 45 48 47 44 44 45 45 45 44 42 40 38 38 40 40 40 42 43 44 45 46 48 48 50 53 55 56 57 58 59 60 60 59 59 59 59 60 62 66 69 71 75 76 75 76 77 77 77 75 73 70 66 63 60
34 33 32 30 30 33 35 36 34 32 35 39 39 37 37 36 34 34 36 38 39 39 38 37 40 43 46 48 47 44 42 43 44 46 46 45 46 47 46 45 44 42 40 40 41 41 40 39 41 43 45 46 47 48 49 49 50 51 52 53 55 57 59 61 61 61 61 59 57 57 59 61 64 68 71 74 76 76 76 78 79 78 76 73 70 68
38 36 34 32 32 34 36 37 37 37 38 40 41 41 39 35 33 35 38 41 40 39 39 39 40 44 48 49 47 44 44 44 44 46 47 46 46 47 46 44 43 42 41 41 41 41 40 38 39 41 44 46 47 47 47 47 48 50 51 52 54 55 57 58 60 60 61 61 61 60 59 58 61 64 66 69 74 76 76 79 81 81 80 78 75 73
41 38 35 34 33 35 39 39 38 39 40 40 42 44 40 36 36 39 41 42 40 39 40 41 42 46 48 47 46 46 46 46 47 49 49 47 47 47 46 44 43 42 41 40 38 39 40 39 38 40 43 45 46 46 45 45 46 48 50 52 53 53 55 57 58 58 59 61 62 63 63 61 62 64 63 63 68 73 77 81 83 82 82 82 79 77
43 41 41 42 40 39 42 44 43 41 40 40 41 43 41 40 41 42 41 40 40 41 41 42 45 47 46 45 47 49 49 50 51 51 50 49 48 47 45 44 43 41 39 38 37 38 39 39 37 38 41 44 46 46 44 44 45 46 48 51 52 53 54 56 58 58 58 60 60 61 63 63 64 65 63 61 62 66 72 78 82 83 83 83 83 82
47 45 45 48 45 41 43 46 46 44 42 41 42 43 42 42 43 42 41 40 42 43 43 45 48 48 47 47 49 51 51 51 52 52 52 52 48 45 43 42 41 40 39 37 38 39 39 38 37 37 38 42 44 45 46 46 47 47 47 48 49 50 51 54 56 57 58 58 59 58 59 61 62 63 63 62 62 63 67 72 79 82 83 84 85 87
50 49 48 48 47 43 43 45 44 44 43 43 43 44 44 43 42 43 42 41 43 46 47 46 47 48 49 50 51 52 52 53 53 54 54 52 48 45 44 43 42 41 39 38 39 39 38 37 37 37 37 39 41 45 49 50 50 49 48 46 46 47 49 51 53 56 57 58 58 57 57 59 61 63 63 63 64 64 65 69 75 80 83 86 87 89
53 51 50 50 50 49 49 48 45 45 47 47 45 44 45 44 43 45 45 44 45 48 49 49 49 50 51 52 53 54 54 54 54 54 55 53 51 48 47 46 44 43 42 42 42 41 38 37 37 37 36 36 39 44 50 52 51 50 49 47 47 47 49 51 54 56 58 59 59 59 60 61 62 63 64 63 63 64 66 70 74 79 83 87 90 92
55 52 50 51 52 53 54 51 48 48 49 49 48 47 47 46 45 46 47 47 49 51 52 53 54 54 54 55 55 56 56 56 55 55 56 56 54 51 49 48 47 46 45 44 43 42 40 39 37 37 36 35 38 44 49 51 52 52 51 51 50 50 51 54 57 59 61 62 64 64 64 65 65 66 66 65 64 67 70 73 76 79 80 82 86 90
55 53 52 52 53 55 56 56 54 52 52 53 52 51 51 51 50 48 48 50 52 54 54 54 56 56 56 57 57 58 58 56 55 56 57 57 55 52 49 47 46 45 45 45 44 42 41 40 38 37 36 36 39 44 47 49 52 54 54 54 53 53 53 54 57 59 62 64 66 67 67 67 68 69 71 70 68 69 72 74 75 77 78 77 80 86
52 53 54 56 56 58 59 61 60 58 58 59 58 56 56 55 53 51 52 54 56 56 55 54 54 56 57 57 58 59 58 55 55 57 58 57 54 51 48 45 44 44 45 46 46 45 43 42 40 39 38 38 41 45 47 49 53 56 57 57 56 54 55 55 56 58 61 64 67 70 70 68 69 70 73 76 75 73 74 75 76 77 77 76 77 80
52 54 55 56 58 60 60 61 62 61 62 63 62 61 61 59 57 57 58 60 60 60 59 57 56 56 56 56 57 60 58 55 54 57 58 56 53 50 47 45 43 42 43 45 47 47 47 45 43 41 40 41 44 48 49 50 53 56 59 60 59 58 57 58 58 60 62 65 69 71 72 70 69 71 77 84 86 84 81 80 82 84 84 82 79 79